EW4649 Weather Reports


Display with metric or nautical units.
time (UTC)temp
F
wind
direction
speed
MPH
gust
MPH
rain 1hr
in
rain 24hr
in
rain mn
in
humidity
%
barometer
mb
20181214223146 40 11 0.0 2.0 0.00 0.00 0.00 98 1019.0
20181214221615 40 11 0.0 4.0 0.00 0.00 0.00 98 1018.9
20181214220141 40 10 1.0 5.0 0.00 0.00 0.00 98 1018.9
20181214214556 40 11 0.0 4.0 0.00 0.00 0.00 98 1018.9
20181214213147 40 11 0.0 4.0 0.00 0.00 0.00 98 1018.7
20181214211603 40 10 0.0 4.0 0.00 0.00 0.00 98 1018.6
20181214210113 40 5 0.0 4.0 0.00 0.00 0.00 98 1018.8
20181214204614 40 360 0.0 5.0 0.00 0.00 0.00 98 1019.0
20181214203055 40 360 0.0 0.0 0.00 0.00 0.00 97 1018.7
20181214201614 40 360 0.0 2.0 0.00 0.00 0.00 97 1018.8
20181214200102 40 360 0.0 3.0 0.00 0.00 0.00 97 1018.9
20181214194614 40 360 1.0 6.0 0.00 0.00 0.00 97 1018.8
20181214193051 40 11 0.0 3.0 0.00 0.00 0.00 97 1018.7
20181214191549 40 5 0.0 5.0 0.00 0.00 0.00 97 1018.9
20181214190103 40 333 0.0 3.0 0.00 0.00 0.00 97 1019.2
20181214184548 40 333 0.0 4.0 0.00 0.00 0.00 97 1019.5
20181214183127 40 340 0.0 2.0 0.00 0.00 0.00 97 1019.0
20181214181633 40 333 1.0 4.0 0.00 0.00 0.00 97 1019.8
20181214180035 40 28 0.0 2.0 0.00 0.00 0.00 97 1019.9
20181214174529 40 54 0.0 7.0 0.00 0.00 0.00 97 1019.9
20181214173040 39 11 3.0 6.0 0.00 0.00 0.00 97 1020.7
20181214171555 39 33 1.0 9.0 0.00 0.00 0.00 97 1021.1
20181214170024 39 15 0.0 8.0 0.00 0.00 0.00 97 1021.7
20181214164526 39 355 1.0 7.0 0.00 0.00 0.00 97 1022.0
20181214163016 39 44 0.0 5.0 0.00 0.00 0.00 97 1022.4
20181214161544 39 53 2.0 5.0 0.00 0.00 0.00 97 1022.9
20181214160010 39 38 0.0 2.0 0.00 0.00 0.00 97 1023.5
20181214154509 39 35 0.0 3.0 0.00 0.00 0.00 97 1023.7
20181214153036 39 30 0.0 7.0 0.00 0.00 0.00 97 1024.0
20181214151508 39 331 2.0 6.0 0.00 0.00 0.00 97 1024.3
20181214150021 39 29 0.0 1.0 0.00 0.00 0.00 97 1024.1
20181214144522 39 29 0.0 1.0 0.00 0.00 0.00 97 1024.1
20181214143016 39 29 0.0 2.0 0.00 0.00 0.00 97 1024.0
20181214141505 39 29 0.0 3.0 0.00 0.00 0.00 97 1023.8
20181214140002 39 30 1.0 5.0 0.00 0.00 0.00 97 1024.0
20181214134506 39 19 1.0 4.0 0.00 0.00 0.00 97 1024.2
20181214133256 39 19 0.0 3.0 0.00 0.00 0.00 97 1024.2
20181214131628 39 15 0.0 4.0 0.00 0.00 0.00 97 1024.5
20181214130136 39 15 0.0 3.0 0.00 0.00 0.00 97 1024.6
20181214124700 39 15 0.0 3.0 0.00 0.00 0.00 97 1024.8
20181214123237 39 15 0.0 4.0 0.00 0.00 0.00 97 1024.5
20181214121635 39 15 0.0 2.0 0.00 0.00 0.00 97 1024.4
20181214120104 39 15 0.0 0.0 0.00 0.00 0.00 97 1024.6
20181214114827 39 15 0.0 0.0 0.00 0.00 0.00 96 1024.4
20181214113207 39 15 0.0 2.0 0.00 0.00 0.00 96 1024.4
20181214111608 39 15 0.0 2.0 0.00 0.00 0.00 96 1024.5
20181214110131 39 15 0.0 1.0 0.00 0.00 0.00 96 1024.5
20181214104659 39 14 0.0 3.0 0.00 0.00 0.00 96 1024.5
20181214103106 39 14 0.0 2.0 0.00 0.00 0.00 96 1024.7
20181214101616 39 14 0.0 0.0 0.00 0.00 0.00 96 1024.6
20181214100117 39 14 0.0 2.0 0.00 0.00 0.00 96 1024.6
20181214094633 39 14 1.0 4.0 0.00 0.00 0.00 96 1024.5
20181214093107 39 11 1.0 3.0 0.00 0.00 0.00 96 1024.7
20181214091649 39 11 0.0 2.0 0.00 0.00 0.00 96 1024.8
20181214090107 38 11 0.0 4.0 0.00 0.00 0.00 96 1024.8
20181214084632 38 15 0.0 2.0 0.00 0.00 0.00 95 1025.0
20181214083057 38 15 0.0 4.0 0.00 0.00 0.00 95 1024.9
20181214081607 38 13 2.0 6.0 0.00 0.00 0.00 95 1025.0
20181214080059 38 246 0.0 2.0 0.00 0.00 0.00 95 1025.3
20181214074616 38 240 0.0 3.0 0.00 0.00 0.00 95 1025.0
20181214073123 38 232 1.0 5.0 0.00 0.00 0.00 94 1025.3
20181214071553 38 202 0.0 4.0 0.00 0.00 0.00 94 1025.5
20181214070109 38 181 0.0 3.0 0.00 0.00 0.00 93 1025.5
20181214064557 38 181 0.0 2.0 0.00 0.00 0.00 91 1025.5
20181214063059 39 181 0.0 1.0 0.00 0.00 0.00 89 1025.5
20181214061557 38 181 0.0 0.0 0.00 0.00 0.00 85 1025.7
20181214060047 39 181 0.0 2.0 0.00 0.00 0.00 82 1025.9
20181214054540 40 181 0.0 0.0 0.00 0.00 0.00 80 1026.0
20181214053017 40 181 0.0 0.0 0.00 0.00 0.00 80 1026.1
20181214051518 40 181 0.0 1.0 0.00 0.00 0.00 78 1025.9
20181214050013 41 181 0.0 0.0 0.00 0.00 0.00 77 1026.1
20181214044512 40 181 0.0 4.0 0.00 0.00 0.00 78 1026.1
20181214043043 40 180 0.0 1.0 0.00 0.00 0.00 79 1026.1
20181214041511 39 180 0.0 0.0 0.00 0.00 0.00 81 1026.0
20181214040019 39 180 0.0 1.0 0.00 0.00 0.00 81 1026.3
20181214034518 40 180 0.0 0.0 0.00 0.00 0.00 80 1026.2
20181214033011 40 180 0.0 4.0 0.00 0.00 0.00 79 1025.9
20181214031508 39 162 0.0 1.0 0.00 0.00 0.00 82 1026.0
20181214030009 39 162 0.0 0.0 0.00 0.00 0.00 82 1026.0
20181214024545 39 162 0.0 4.0 0.00 0.00 0.00 83 1026.2
20181214023031 38 163 0.0 0.0 0.00 0.00 0.00 85 1026.1
20181214021508 37 163 0.0 0.0 0.00 0.00 0.00 87 1026.3
20181214020010 37 163 0.0 0.0 0.00 0.00 0.00 86 1026.2
20181214014516 38 162 0.0 0.0 0.00 0.00 0.00 86 1026.4
20181214013016 37 163 0.0 0.0 0.00 0.00 0.00 87 1026.4
20181214011513 38 162 0.0 0.0 0.00 0.00 0.00 87 1026.3
20181214004506 37 162 0.0 0.0 0.00 0.00 0.00 86 1026.3
20181214003004 38 163 0.0 0.0 0.00 0.00 0.00 86 1026.3
20181214001700 38 163 0.0 0.0 0.00 0.00 0.00 86 1026.3
20181214000158 38 163 0.0 0.0 0.00 0.00 0.00 84 1026.0
20181213234655 38 163 0.0 0.0 0.00 0.00 0.00 85 1026.1
20181213233145 38 163 0.0 0.0 0.00 0.00 0.00 83 1025.7
20181213231651 38 163 0.0 0.0 0.00 0.00 0.00 82 1025.6
20181213230245 38 163 0.0 0.0 0.00 0.00 0.00 84 1025.5
20181213224642 38 163 0.0 0.0 0.00 0.00 0.00 83 1025.2